User: anonymous   Login
Location: Unspecified
(0.0000°N, 0.0000°E)
Time: 08:13:17
(UTC+00:00)
Language:

ELEKTRO-L - Orbit

View from above orbital plane
View from above orbital plane
View from above satellite
View from above satellite

Ground track
Ground track

The orbit data is extracted from the following two-line orbital elements,

1 37344U 11001A   15210.57313380 -.00000105  00000-0  00000+0 0  9999
2 37344 001.0580 080.5438 0003306 317.9342 190.6732 01.00268604 16604
Epoch (UTC): 29 July 2015 13:45:18
Eccentricity: 0.0003306
inclination: 1.0580°
perigee height: 35773 km
apogee height: 35801 km
right ascension of ascending node: 80.5438°
argument of perigee: 317.9342°
revolutions per day: 1.00268604
mean anomaly at epoch: 190.6732°
orbit number at epoch: 1660

The dashed part of the orbit path shows where the satellite is in the earth's shadow,  

DLR